OK1KZE-6 Weather Reports


time (UTC)temp
F
wind
direction
speed
knots
gust
knots
rain 1hr
in
rain 24hr
in
rain mn
in
humidity
%
barometer
mb
20260506081008 57 94 9.6 9.6 0.00 0.00 0.00 81 1009.4
20260506080507 57 94 9.6 9.6 0.00 0.00 0.00 82 1009.6
20260506073507 57 216 6.1 7.8 0.00 0.00 0.00 84 1009.3
20260506073007 56 179 3.5 4.3 0.00 0.00 0.00 86 1009.2
20260506072508 56 177 5.2 9.6 0.00 0.00 0.00 86 1009.6
20260506072008 56 182 5.2 6.1 0.00 0.00 0.00 87 1009.4
20260506071508 56 183 5.2 7.0 0.00 0.00 0.00 86 1009.4
20260506071007 56 197 9.6 9.6 0.00 0.00 0.00 87 1009.1
20260506070508 55 179 4.3 7.8 0.00 0.00 0.00 88 1009.2
20260506062007 55 160 5.2 6.1 0.00 0.00 0.00 91 1009.1
20260506061508 54 153 4.3 6.1 0.00 0.00 0.00 90 1008.8
20260506061008 54 152 5.2 7.8 0.00 0.00 0.00 91 1008.9
20260506060507 54 151 7.0 8.7 0.00 0.00 0.00 92 1008.9
20260506051008 53 157 7.8 10.4 0.00 0.00 0.00 90 1009.0
20260506050508 53 167 7.0 11.3 0.00 0.00 0.00 91 1009.0
20260506045008 53 146 8.7 9.6 0.00 0.00 0.00 93 1009.0
20260506044507 53 151 9.6 10.4 0.00 0.00 0.00 93 1008.8
20260506044008 53 137 7.0 8.7 0.00 0.00 0.00 93 1008.7
20260506043508 53 157 5.2 8.7 0.00 0.00 0.00 94 1008.6
20260506043007 52 139 7.0 8.7 0.00 0.00 0.00 94 1008.7
20260506042006 52 128 5.2 7.0 0.00 0.00 0.00 94 1008.4
20260506041507 52 157 5.2 6.1 0.00 0.00 0.00 94 1008.6
20260506041007 52 111 6.1 7.0 0.00 0.00 0.00 95 1008.7
20260506040507 52 153 6.1 7.0 0.00 0.00 0.00 96 1008.6
20260506040008 52 155 5.2 6.1 0.00 0.00 0.00 95 1008.4
20260506035507 52 159 5.2 5.2 0.00 0.00 0.00 95 1008.4
20260506035007 52 160 3.5 5.2 0.00 0.00 0.00 96 1008.2
20260506034508 51 172 4.3 4.3 0.00 0.00 0.00 97 1008.1
20260506034008 51 188 5.2 6.1 0.00 0.00 0.00 98 1008.2
20260506033508 51 186 4.3 4.3 0.00 0.00 0.00 98 1008.1
20260506033008 51 173 5.2 5.2 0.00 0.00 0.00 97 1008.2
20260506032508 51 189 4.3 5.2 0.00 0.00 0.00 97 1008.1
20260506032008 51 201 3.5 3.5 0.00 0.00 0.00 98 1008.2
20260506031508 51 159 1.7 3.5 0.00 0.00 0.00 98 1008.1
20260506031007 51 156 3.5 4.3 0.00 0.00 0.00 98 1008.1
20260506030508 52 144 1.7 4.3 0.00 0.00 0.00 97 1008.1
20260506030008 52 154 4.3 4.3 0.00 0.00 0.00 97 1008.0
20260506025507 52 163 4.3 5.2 0.00 0.00 0.00 97 1008.4
20260506025008 52 149 4.3 4.3 0.00 0.00 0.00 98 1008.4
20260506024008 52 133 5.2 6.1 0.00 0.00 0.00 98 1008.4
20260506023509 52 157 6.1 7.8 0.00 0.00 0.00 98 1008.5
20260506023007 52 180 5.2 5.2 0.00 0.00 0.00 98 1008.4
20260506022507 52 135 5.2 6.1 0.00 0.00 0.00 98 1008.4
20260506022007 52 128 5.2 7.0 0.00 0.00 0.00 97 1008.4
20260506021508 52 152 5.2 5.2 0.00 0.00 0.00 97 1008.6
20260506021009 52 207 5.2 5.2 0.00 0.00 0.00 98 1008.6
20260506020508 52 191 5.2 5.2 0.00 0.00 0.00 99 1008.6
20260506020008 52 191 4.3 6.1 0.00 0.00 0.00 99 1008.5
20260506015506 52 176 5.2 6.1 0.00 0.00 0.00 99 1008.5
20260506015007 53 167 4.3 5.2 0.00 0.00 0.00 99 1008.4
20260506014507 53 139 4.3 4.3 0.00 0.00 0.00 99 1008.4
20260506014007 53 129 5.2 6.1 0.00 0.00 0.00 99 1008.3
20260506013508 53 167 4.3 5.2 0.00 0.00 0.00 98 1008.2
20260506013008 53 152 4.3 6.1 0.00 0.00 0.00 98 1008.3
20260506012507 53 181 5.2 7.0 0.00 0.00 0.00 98 1008.3
20260506012007 53 156 4.3 7.8 0.00 0.00 0.00 98 1008.2
20260506011507 53 186 5.2 6.1 0.00 0.00 0.00 98 1008.1
20260506011008 53 171 7.8 9.6 0.00 0.00 0.00 98 1008.2
20260506010507 53 151 6.1 7.0 0.00 0.00 0.00 98 1008.0
20260506010007 54 138 4.3 6.1 0.00 0.00 0.00 99 1008.1
20260506005507 54 127 7.0 8.7 0.00 0.00 0.00 99 1008.1
20260506005007 54 131 8.7 9.6 0.00 0.00 0.00 99 1008.3
20260506004508 54 143 7.0 7.8 0.00 0.00 0.00 99 1008.2
20260506004007 54 126 7.0 7.8 0.00 0.00 0.00 99 1008.2
20260506003507 54 128 7.8 8.7 0.00 0.00 0.00 99 1008.2
20260506003008 54 125 8.7 9.6 0.00 0.00 0.00 99 1008.2
20260506002506 54 130 8.7 8.7 0.00 0.00 0.00 99 1008.2
20260506002007 54 130 6.1 6.1 0.00 0.00 0.00 98 1008.4
20260506001507 54 125 4.3 5.2 0.00 0.00 0.00 98 1008.3
20260506001008 55 131 4.3 5.2 0.00 0.00 0.00 97 1008.2
20260506000508 55 128 4.3 4.3 0.00 0.00 0.00 96 1008.2
20260506000009 55 116 5.2 5.2 0.00 0.00 0.00 96 1008.0
20260505235507 54 125 4.3 4.3 0.00 0.00 0.00 97 1007.9
20260505235007 54 124 6.1 7.0 0.00 0.00 0.00 98 1008.3
20260505234507 54 132 4.3 5.2 0.00 0.00 0.00 98 1008.2
20260505234006 54 111 4.3 4.3 0.00 0.00 0.00 98 1008.2
20260505233508 54 110 5.2 6.1 0.00 0.00 0.00 98 1008.0
20260505233007 54 129 4.3 5.2 0.00 0.00 0.00 98 1008.3
20260505232507 54 132 5.2 5.2 0.00 0.00 0.00 98 1008.3
20260505232007 54 123 5.2 5.2 0.00 0.00 0.00 98 1008.5
20260505231507 54 114 4.3 5.2 0.00 0.00 0.00 98 1008.4
20260505231008 54 108 7.8 9.6 0.00 0.00 0.00 99 1008.3
20260505230007 54 115 9.6 11.3 0.00 0.00 0.00 98 1008.6
20260505225507 54 110 10.4 11.3 0.00 0.00 0.00 98 1008.8
20260505225007 54 119 13.9 14.8 0.00 0.00 0.00 98 1009.0
20260505224507 54 111 11.3 12.2 0.00 0.00 0.00 97 1008.7
20260505224008 54 91 7.0 7.8 0.00 0.00 0.00 97 1008.7
20260505223507 54 102 7.0 7.8 0.00 0.00 0.00 97 1008.9
20260505223009 54 103 7.0 7.0 0.00 0.00 0.00 97 1008.6
20260505222507 54 83 7.0 7.8 0.00 0.00 0.00 97 1008.7
20260505222007 54 107 6.1 7.0 0.00 0.00 0.00 97 1008.9
20260505221508 54 76 4.3 7.0 0.00 0.00 0.00 97 1008.6
20260505221008 54 63 10.4 10.4 0.00 0.00 0.00 96 1008.5
20260505220507 54 53 6.1 7.0 0.00 0.00 0.00 97 1008.8
20260505220008 55 55 7.8 8.7 0.00 0.00 0.00 98 1008.8
20260505215507 55 49 6.1 7.0 0.00 0.00 0.00 98 1008.8
20260505214507 55 46 3.5 5.2 0.00 0.00 0.00 98 1009.0
20260505214007 55 58 4.3 5.2 0.00 0.00 0.00 98 1008.8
20260505213507 55 33 6.1 7.8 0.00 0.00 0.00 98 1009.0
20260505213007 55 43 7.0 7.8 0.00 0.00 0.00 98 1009.1
20260505212508 55 8 1.7 4.3 0.00 0.00 0.00 98 1008.7
20260505212007 55 288 1.7 4.3 0.00 0.00 0.00 98 1008.8
20260505211508 55 259 5.2 8.7 0.00 0.00 0.00 97 1008.7
20260505211007 56 257 2.6 3.5 0.00 0.00 0.00 96 1008.8
20260505210507 56 281 6.1 7.0 0.00 0.00 0.00 95 1008.5
20260505210008 56 257 3.5 5.2 0.00 0.00 0.00 95 1008.5
20260505205507 56 334 7.8 7.8 0.00 0.00 0.00 95 1008.1
20260505205007 56 294 3.5 6.1 0.00 0.00 0.00 95 1008.2
20260505204508 57 196 6.1 8.7 0.00 0.00 0.00 94 1008.5
20260505204007 57 217 4.3 10.4 0.00 0.00 0.00 92 1008.4
20260505203507 57 216 6.1 8.7 0.00 0.00 0.00 89 1008.0
20260505203009 58 57 0.0 4.3 0.00 0.00 0.00 82 1007.5
20260505202508 60 323 4.3 4.3 0.00 0.00 0.00 75 1007.6
20260505202008 62 278 2.6 2.6 0.00 0.00 0.00 71 1007.6
20260505201508 62 320 6.1 7.0 0.00 0.00 0.00 67 1007.1
20260505201007 62 310 4.3 4.3 0.00 0.00 0.00 65 1007.1
20260505200508 62 311 1.7 3.5 0.00 0.00 0.00 65 1007.0
20260505200008 62 229 3.5 3.5 0.00 0.00 0.00 65 1007.3
20260505195506 62 192 2.6 3.5 0.00 0.00 0.00 66 1007.3
20260505195008 62 103 3.5 4.3 0.00 0.00 0.00 65 1007.0
20260505194508 62 92 3.5 4.3 0.00 0.00 0.00 68 1007.2
20260505194007 60 209 8.7 10.4 0.00 0.00 0.00 71 1007.1
20260505193507 61 89 1.7 3.5 0.00 0.00 0.00 70 1006.6
20260505192507 61 73 13.0 13.9 0.00 0.00 0.00 69 1006.5
20260505192007 61 75 11.3 14.8 0.00 0.00 0.00 69 1006.2
20260505191508 62 81 9.6 14.8 0.00 0.00 0.00 68 1006.4
20260505191008 62 81 14.8 15.6 0.00 0.00 0.00 67 1006.4
20260505190507 62 83 14.8 16.5 0.00 0.00 0.00 66 1006.2
20260505190007 63 85 14.8 19.1 0.00 0.00 0.00 65 1006.4
20260505185507 62 88 18.2 18.2 0.00 0.00 0.00 66 1006.5
20260505185008 62 93 19.1 20.0 0.00 0.00 0.00 66 1006.3
20260505184507 62 84 15.6 20.0 0.00 0.00 0.00 69 1006.6
20260505184008 62 81 15.6 18.2 0.00 0.00 0.00 68 1006.6
20260505183507 62 86 19.1 19.1 0.00 0.00 0.00 66 1006.6
20260505183009 30 0 0.0 0.0 0.00 0.00 0.00 100 1006.5
20260505182507 30 0 0.0 0.0 0.00 0.00 0.00 100 1006.4
20260505182008 64 98 20.0 21.7 0.00 0.00 0.00 62 1006.4
20260505181508 64 98 20.0 21.7 0.00 0.00 0.00 62 1006.1
20260505181008 64 94 19.1 21.7 0.00 0.00 0.00 61 1006.4
20260505180507 64 95 18.2 20.0 0.00 0.00 0.00 61 1006.4
20260505180007 64 103 20.0 20.9 0.00 0.00 0.00 61 1006.5
20260505175507 64 101 19.1 20.9 0.00 0.00 0.00 61 1006.7
20260505175007 64 107 20.0 22.6 0.00 0.00 0.00 60 1006.7
20260505174507 64 102 20.0 21.7 0.00 0.00 0.00 61 1006.7
20260505174007 64 109 17.4 20.0 0.00 0.00 0.00 62 1007.0
20260505173508 64 107 20.9 23.5 0.00 0.00 0.00 61 1007.0
20260505172508 64 108 26.1 26.9 0.00 0.00 0.00 61 1006.9
20260505172008 64 108 24.3 31.3 0.00 0.00 0.00 61 1007.2
20260505171507 65 113 28.7 32.2 0.00 0.00 0.00 61 1007.3
20260505171008 65 109 23.5 26.1 0.00 0.00 0.00 62 1007.1
20260505170507 65 106 23.5 23.5 0.00 0.00 0.00 62 1007.4
20260505170007 65 112 25.2 27.8 0.00 0.00 0.00 61 1007.4
20260505165508 65 117 22.6 26.9 0.00 0.00 0.00 60 1007.5
20260505165007 65 106 21.7 26.1 0.00 0.00 0.00 61 1007.5
20260505164508 65 114 26.9 28.7 0.00 0.00 0.00 62 1007.9
20260505164007 66 113 21.7 22.6 0.00 0.00 0.00 61 1007.8
20260505163508 66 111 19.1 22.6 0.00 0.00 0.00 62 1007.7
20260505163009 66 114 20.9 22.6 0.00 0.00 0.00 61 1007.6
20260505162508 66 116 21.7 26.9 0.00 0.00 0.00 59 1007.5
20260505162006 67 114 26.9 30.4 0.00 0.00 0.00 56 1007.7
20260505161508 68 119 21.7 25.2 0.00 0.00 0.00 57 1007.8
20260505161008 70 104 21.7 27.8 0.00 0.00 0.00 54 1007.7
20260505160507 70 101 18.2 20.9 0.00 0.00 0.00 53 1007.6
20260505153007 72 103 20.0 21.7 0.00 0.00 0.00 47 1007.9
20260505152507 71 100 14.8 16.5 0.00 0.00 0.00 48 1008.0
20260505152007 70 126 20.0 20.9 0.00 0.00 0.00 48 1007.9
20260505151508 71 116 20.0 20.9 0.00 0.00 0.00 46 1008.0
20260505151007 72 107 13.0 20.0 0.00 0.00 0.00 44 1008.3
20260505150508 74 100 13.0 14.8 0.00 0.00 0.00 44 1008.3
20260505140508 72 69 10.4 11.3 0.00 0.00 0.00 45 1008.8
20260505125007 72 92 17.4 19.1 0.00 0.00 0.00 47 1009.6
20260505124508 72 88 16.5 18.2 0.00 0.00 0.00 47 1009.4
20260505124008 71 95 15.6 17.4 0.00 0.00 0.00 48 1009.4
20260505123508 72 96 13.9 17.4 0.00 0.00 0.00 47 1009.3
20260505123008 72 83 14.8 15.6 0.00 0.00 0.00 48 1009.5
20260505122508 72 74 13.9 14.8 0.00 0.00 0.00 49 1009.3
20260505122007 72 94 18.2 18.2 0.00 0.00 0.00 50 1009.4
20260505121507 71 89 19.1 20.0 0.00 0.00 0.00 49 1009.6
20260505121009 0 0 0.0 0.0 0.00 0.00 0.00 100 1009.6
20260505120508 0 0 0.0 0.0 0.00 0.00 0.00 100 1009.7
20260505120007 30 0 0.0 0.0 0.00 0.00 0.00 100 1009.8
20260505115507 30 0 0.0 0.0 0.00 0.00 0.00 100 1009.7
20260505115007 30 0 0.0 0.0 0.00 0.00 0.00 100 1009.8
20260505114507 30 0 0.0 0.0 0.00 0.00 0.00 100 1009.7
20260505113509 30 0 0.0 0.0 0.00 0.00 0.00 100 1010.0
20260505113008 30 0 0.0 0.0 0.00 0.00 0.00 100 1009.9
20260505112509 30 0 0.0 0.0 0.00 0.00 0.00 100 1010.1
20260505112008 30 0 0.0 0.0 0.00 0.00 0.00 100 1010.1
20260505111507 30 0 0.0 0.0 0.00 0.00 0.00 100 1010.1
20260505111008 69 58 13.9 13.9 0.00 0.00 0.00 51 1010.2
20260505110507 69 58 13.9 13.9 0.00 0.00 0.00 51 1010.3
20260505101508 68 89 12.2 13.0 0.00 0.00 0.00 54 1010.5
20260505101007 68 86 11.3 12.2 0.00 0.00 0.00 53 1010.4
20260505100507 68 97 16.5 16.5 0.00 0.00 0.00 54 1010.3
20260505100008 68 92 15.6 17.4 0.00 0.00 0.00 56 1010.3
20260505095008 68 85 14.8 16.5 0.00 0.00 0.00 56 1010.5
20260505094507 68 88 12.2 12.2 0.00 0.00 0.00 58 1010.5
20260505094007 66 78 10.4 12.2 0.00 0.00 0.00 58 1010.5
20260505093508 67 71 14.8 15.6 0.00 0.00 0.00 57 1010.6
20260505092508 66 77 15.6 16.5 0.00 0.00 0.00 60 1010.7
20260505092007 66 76 13.9 14.8 0.00 0.00 0.00 60 1010.6
20260505091508 67 83 15.6 17.4 0.00 0.00 0.00 61 1010.7
20260505091007 67 80 12.2 13.0 0.00 0.00 0.00 63 1011.0
20260505090507 67 75 13.9 14.8 0.00 0.00 0.00 62 1010.8
20260505090008 67 85 12.2 14.8 0.00 0.00 0.00 64 1011.0
20260505085507 66 67 13.0 14.8 0.00 0.00 0.00 63 1010.8
20260505085007 66 69 13.9 16.5 0.00 0.00 0.00 65 1010.9
20260505084507 65 50 14.8 18.2 0.00 0.00 0.00 64 1010.6
20260505084007 64 69 13.9 17.4 0.00 0.00 0.00 66 1011.1
20260505083507 65 67 15.6 17.4 0.00 0.00 0.00 66 1011.0
20260505083008 64 71 11.3 12.2 0.00 0.00 0.00 68 1010.9
20260505082508 64 71 11.3 12.2 0.00 0.00 0.00 68 1011.0
20260505082007 30 0 0.0 0.0 0.00 0.00 0.00 100 1010.8
20260505081508 30 0 0.0 0.0 0.00 0.00 0.00 100 1010.9